| time (UTC) | temp F | wind direction | speed knots | gust knots | rain 1hr in | rain 24hr in | rain mn in | humidity % | barometer mb |
| 20260502180510 | 73 | 285 | 3.5 | 8.7 | 0.00 | 0.97 | 0.00 | 53 | 1021.1 |
| 20260502164010 | 70 | 246 | 2.6 | 7.8 | 0.00 | 1.09 | 0.00 | 60 | 1021.7 |
| 20260502163510 | 70 | 70 | 2.6 | 7.8 | 0.00 | 1.11 | 0.00 | 63 | 1021.8 |
| 20260502163011 | 69 | 112 | 1.7 | 7.8 | 0.00 | 1.13 | 0.00 | 64 | 1021.9 |
| 20260502162511 | 69 | 3 | 7.8 | 7.8 | 0.00 | 1.15 | 0.00 | 64 | 1021.9 |
| 20260502161511 | 69 | 323 | 3.5 | 9.6 | 0.00 | 1.18 | 0.00 | 64 | 1021.8 |
| 20260502161011 | 69 | 337 | 3.5 | 7.0 | 0.00 | 1.19 | 0.00 | 65 | 1021.8 |
| 20260502160511 | 68 | 104 | 1.7 | 7.0 | 0.00 | 1.21 | 0.00 | 66 | 1021.7 |
| 20260502152011 | 65 | 306 | 7.0 | 8.7 | 0.00 | 1.25 | 0.00 | 75 | 1021.7 |
| 20260502151511 | 65 | 311 | 4.3 | 8.7 | 0.00 | 1.25 | 0.00 | 75 | 1021.6 |
| 20260502151011 | 65 | 113 | 6.1 | 8.7 | 0.00 | 1.25 | 0.00 | 75 | 1021.5 |
| 20260502150511 | 64 | 321 | 2.6 | 7.8 | 0.00 | 1.25 | 0.00 | 77 | 1021.6 |
| 20260502130510 | 56 | 264 | 0.9 | 5.2 | 0.00 | 1.85 | 0.00 | 91 | 1020.3 |
| 20260502123511 | 54 | 341 | 1.7 | 4.3 | 0.00 | 1.94 | 0.00 | 93 | 1019.8 |
| 20260502122510 | 54 | 316 | 0.0 | 6.1 | 0.00 | 2.02 | 0.00 | 93 | 1019.7 |
| 20260502122010 | 54 | 3 | 2.6 | 1.7 | 0.00 | 2.07 | 0.00 | 93 | 1019.6 |
| 20260502121510 | 53 | 310 | 0.9 | 3.5 | 0.00 | 2.07 | 0.00 | 93 | 1019.4 |
| 20260502120510 | 53 | 331 | 1.7 | 3.5 | 0.00 | 2.09 | 0.00 | 93 | 1019.4 |
| 20260502115510 | 53 | 352 | 0.0 | 2.6 | 0.00 | 2.20 | 0.00 | 93 | 1019.3 |
| 20260502114010 | 53 | 321 | 0.9 | 2.6 | 0.00 | 2.32 | 0.00 | 94 | 1019.2 |
| 20260502113510 | 53 | 321 | 1.7 | 2.6 | 0.00 | 2.33 | 0.00 | 94 | 1019.1 |
| 20260502112510 | 53 | 20 | 0.9 | 3.5 | 0.00 | 2.34 | 0.00 | 93 | 1019.0 |
| 20260502112010 | 53 | 17 | 0.0 | 4.3 | 0.00 | 2.34 | 0.00 | 93 | 1019.0 |
| 20260502111510 | 53 | 315 | 2.6 | 4.3 | 0.00 | 2.35 | 0.00 | 93 | 1019.0 |
| 20260502111010 | 53 | 332 | 0.0 | 3.5 | 0.00 | 2.39 | 0.00 | 93 | 1018.9 |
| 20260502110010 | 53 | 308 | 1.7 | 3.5 | 0.00 | 2.49 | 0.00 | 93 | 1018.8 |
| 20260502105510 | 53 | 321 | 2.6 | 3.5 | 0.00 | 2.52 | 0.00 | 93 | 1018.8 |
| 20260502105010 | 53 | 326 | 2.6 | 3.5 | 0.00 | 2.52 | 0.00 | 93 | 1018.8 |
| 20260502104510 | 53 | 323 | 0.9 | 2.6 | 0.00 | 2.52 | 0.00 | 93 | 1018.7 |
| 20260502104010 | 53 | 325 | 0.9 | 2.6 | 0.00 | 2.53 | 0.00 | 93 | 1018.6 |
| 20260502103510 | 53 | 312 | 0.9 | 4.3 | 0.00 | 2.57 | 0.00 | 93 | 1018.6 |
| 20260502102510 | 53 | 306 | 0.9 | 3.5 | 0.00 | 2.67 | 0.00 | 93 | 1018.6 |
| 20260502102011 | 53 | 327 | 0.9 | 2.6 | 0.00 | 2.68 | 0.00 | 93 | 1018.6 |
| 20260502101510 | 53 | 321 | 0.9 | 5.2 | 0.00 | 2.69 | 0.00 | 93 | 1018.4 |
| 20260502101010 | 53 | 326 | 1.7 | 5.2 | 0.00 | 2.69 | 0.00 | 93 | 1018.3 |
| 20260502091511 | 54 | 355 | 1.7 | 3.5 | 0.00 | 3.31 | 0.00 | 91 | 1017.4 |
| 20260502071511 | 55 | 312 | 1.7 | 4.3 | 0.00 | 4.37 | 0.00 | 91 | 1017.2 |
| 20260502071010 | 55 | 331 | 1.7 | 7.8 | 0.00 | 4.37 | 0.00 | 91 | 1017.3 |
| 20260502070011 | 55 | 314 | 0.9 | 6.1 | 0.00 | 4.37 | 0.00 | 91 | 1017.2 |
| 20260502065011 | 55 | 17 | 0.9 | 5.2 | 0.00 | 4.37 | 0.00 | 92 | 1017.0 |
| 20260502064511 | 55 | 3 | 0.0 | 7.0 | 0.00 | 4.37 | 0.00 | 92 | 1017.0 |
| 20260502063511 | 55 | 353 | 1.7 | 7.0 | 0.00 | 4.37 | 0.00 | 93 | 1016.9 |
| 20260502063010 | 55 | 350 | 1.7 | 7.8 | 0.00 | 4.37 | 0.00 | 93 | 1017.0 |
| 20260502062511 | 55 | 199 | 1.7 | 7.8 | 0.00 | 4.37 | 0.00 | 93 | 1017.0 |
| 20260502062010 | 55 | 356 | 1.7 | 5.2 | 0.00 | 4.38 | 0.00 | 93 | 1016.9 |
| 20260502061010 | 55 | 3 | 0.9 | 6.1 | 0.00 | 4.38 | 0.00 | 93 | 1016.8 |
| 20260502060510 | 55 | 119 | 1.7 | 7.8 | 0.00 | 4.38 | 0.00 | 93 | 1016.8 |
| 20260502060010 | 55 | 329 | 2.6 | 7.8 | 0.00 | 4.43 | 0.00 | 93 | 1016.9 |
| 20260502055510 | 55 | 339 | 1.7 | 7.0 | 0.00 | 4.47 | 0.00 | 94 | 1016.8 |
| 20260502055011 | 55 | 335 | 0.9 | 7.0 | 0.00 | 4.47 | 0.00 | 94 | 1016.9 |
| 20260502054511 | 55 | 287 | 2.6 | 5.2 | 0.00 | 4.47 | 0.00 | 94 | 1016.8 |
| 20260502053010 | 56 | 285 | 1.7 | 8.7 | 0.00 | 4.47 | 0.00 | 94 | 1016.8 |
| 20260502052510 | 56 | 334 | 2.6 | 8.7 | 0.00 | 4.47 | 0.00 | 94 | 1016.8 |
| 20260502052010 | 56 | 321 | 4.3 | 7.0 | 0.00 | 4.48 | 0.00 | 95 | 1016.8 |
| 20260502051510 | 56 | 8 | 7.0 | 11.3 | 0.00 | 4.50 | 0.00 | 95 | 1016.8 |
| 20260502050510 | 56 | 320 | 1.7 | 8.7 | 0.00 | 4.63 | 0.00 | 95 | 1016.8 |
| 20260502050011 | 56 | 8 | 4.3 | 8.7 | 0.00 | 4.78 | 0.00 | 95 | 1016.7 |
| 20260502045511 | 56 | 17 | 1.7 | 7.0 | 0.00 | 4.97 | 4.78 | 95 | 1016.8 |
| 20260502044510 | 56 | 77 | 1.7 | 6.1 | 0.00 | 4.98 | 4.78 | 95 | 1016.7 |
| 20260502044010 | 56 | 42 | 0.9 | 7.0 | 0.00 | 4.98 | 4.78 | 95 | 1016.6 |
| 20260502043510 | 56 | 254 | 1.7 | 7.0 | 0.00 | 4.98 | 4.78 | 95 | 1016.5 |
| 20260502043010 | 56 | 120 | 0.9 | 7.0 | 0.00 | 4.98 | 4.78 | 95 | 1016.5 |
| 20260502042510 | 56 | 44 | 2.6 | 9.6 | 0.00 | 4.98 | 4.78 | 96 | 1016.6 |
| 20260502042010 | 56 | 273 | 1.7 | 9.6 | 0.00 | 4.98 | 4.78 | 96 | 1016.6 |
| 20260502041510 | 56 | 321 | 4.3 | 9.6 | 0.00 | 4.98 | 4.78 | 96 | 1016.8 |
| 20260502041010 | 56 | 333 | 2.6 | 9.6 | 0.00 | 4.98 | 4.78 | 96 | 1016.9 |
| 20260502040510 | 56 | 354 | 7.0 | 8.7 | 0.00 | 4.98 | 4.78 | 96 | 1016.9 |
| 20260502040010 | 56 | 115 | 2.6 | 8.7 | 0.00 | 4.98 | 4.78 | 96 | 1016.9 |
| 20260502035510 | 56 | 305 | 2.6 | 8.7 | 0.00 | 4.98 | 4.78 | 96 | 1016.8 |
| 20260502035010 | 56 | 319 | 2.6 | 7.8 | 0.00 | 4.98 | 4.78 | 96 | 1016.7 |
| 20260502034510 | 56 | 314 | 4.3 | 7.8 | 0.00 | 4.98 | 4.78 | 96 | 1016.6 |
| 20260502034010 | 56 | 302 | 2.6 | 7.8 | 0.00 | 4.98 | 4.78 | 96 | 1016.6 |
| 20260502033010 | 56 | 350 | 3.5 | 7.8 | 0.01 | 4.98 | 4.78 | 96 | 1016.5 |
| 20260502032510 | 56 | 140 | 0.9 | 7.8 | 0.02 | 4.98 | 4.78 | 96 | 1016.4 |
| 20260502032010 | 56 | 302 | 2.6 | 8.7 | 0.04 | 4.98 | 4.78 | 96 | 1016.3 |
| 20260502031510 | 56 | 42 | 2.6 | 8.7 | 0.05 | 4.98 | 4.78 | 96 | 1016.1 |
| 20260502030511 | 56 | 358 | 4.3 | 7.8 | 0.07 | 4.98 | 4.78 | 96 | 1015.8 |
| 20260502030011 | 56 | 314 | 3.5 | 7.0 | 0.08 | 4.98 | 4.78 | 96 | 1015.7 |
| 20260502025011 | 56 | 277 | 1.7 | 7.8 | 0.09 | 4.98 | 4.78 | 96 | 1015.3 |
| 20260502024011 | 56 | 250 | 1.7 | 6.1 | 0.11 | 4.98 | 4.78 | 96 | 1015.3 |
| 20260502023511 | 56 | 312 | 2.6 | 6.1 | 0.11 | 4.97 | 4.77 | 96 | 1015.6 |
| 20260502023011 | 56 | 339 | 0.9 | 7.8 | 0.14 | 4.97 | 4.77 | 96 | 1015.7 |
| 20260502022511 | 56 | 269 | 2.6 | 7.8 | 0.14 | 4.96 | 4.76 | 96 | 1015.4 |
| 20260502021511 | 56 | 308 | 2.6 | 9.6 | 0.13 | 4.93 | 4.73 | 96 | 1015.2 |
| 20260502021011 | 57 | 323 | 1.7 | 7.0 | 0.13 | 4.92 | 4.72 | 96 | 1015.1 |
| 20260502020513 | 57 | 260 | 1.7 | 8.7 | 0.12 | 4.91 | 4.71 | 96 | 1015.3 |
| 20260502020011 | 57 | 302 | 1.7 | 9.6 | 0.12 | 4.90 | 4.70 | 96 | 1015.3 |
| 20260502015511 | 57 | 319 | 3.5 | 9.6 | 0.11 | 4.89 | 4.69 | 96 | 1015.1 |
| 20260502015011 | 57 | 190 | 1.7 | 7.8 | 0.11 | 4.89 | 4.69 | 96 | 1015.2 |
| 20260502014511 | 57 | 355 | 3.5 | 7.8 | 0.11 | 4.88 | 4.68 | 96 | 1015.0 |
| 20260502014011 | 57 | 314 | 2.6 | 8.7 | 0.10 | 4.87 | 4.67 | 95 | 1014.8 |
| 20260502013511 | 57 | 193 | 0.9 | 8.7 | 0.09 | 4.86 | 4.66 | 96 | 1014.6 |
| 20260502013011 | 57 | 292 | 2.6 | 7.8 | 0.07 | 4.83 | 4.63 | 96 | 1014.4 |
| 20260502012511 | 58 | 347 | 3.5 | 11.3 | 0.06 | 4.82 | 4.62 | 96 | 1014.4 |
| 20260502012011 | 58 | 290 | 2.6 | 11.3 | 0.06 | 4.81 | 4.61 | 95 | 1014.3 |
| 20260502011511 | 58 | 353 | 7.0 | 10.4 | 0.06 | 4.80 | 4.60 | 96 | 1014.7 |
| 20260502011011 | 58 | 319 | 3.5 | 11.3 | 0.07 | 4.79 | 4.59 | 96 | 1014.8 |
| 20260502010511 | 58 | 312 | 2.6 | 11.3 | 0.09 | 4.79 | 4.59 | 96 | 1014.9 |
| 20260502010011 | 58 | 354 | 4.3 | 12.2 | 0.08 | 4.78 | 4.58 | 96 | 1014.1 |
| 20260502005511 | 59 | 304 | 0.0 | 12.2 | 0.09 | 4.78 | 4.58 | 96 | 1013.5 |
| 20260502005011 | 59 | 341 | 2.6 | 8.7 | 0.09 | 4.78 | 4.58 | 96 | 1012.9 |
| 20260502004511 | 58 | 342 | 1.7 | 9.6 | 0.08 | 4.77 | 4.57 | 96 | 1012.6 |
| 20260502004011 | 59 | 87 | 1.7 | 9.6 | 0.08 | 4.77 | 4.57 | 96 | 1012.9 |
| 20260502003511 | 59 | 32 | 4.3 | 8.7 | 0.09 | 4.77 | 4.57 | 96 | 1013.6 |
| 20260502002510 | 59 | 318 | 2.6 | 7.0 | 0.09 | 4.76 | 4.56 | 96 | 1014.0 |
| 20260502001511 | 59 | 293 | 1.7 | 7.0 | 0.15 | 4.74 | 4.54 | 96 | 1013.6 |
| 20260502001011 | 59 | 331 | 1.7 | 4.3 | 0.17 | 4.72 | 4.52 | 96 | 1013.6 |
| 20260502000510 | 59 | 295 | 2.6 | 5.2 | 0.18 | 4.70 | 4.50 | 96 | 1013.9 |
| 20260502000011 | 59 | 331 | 4.3 | 7.8 | 0.23 | 4.70 | 4.50 | 96 | 1013.6 |
| 20260501235511 | 59 | 3 | 0.9 | 7.8 | 0.22 | 4.69 | 4.49 | 96 | 1013.5 |
| 20260501235011 | 59 | 354 | 1.7 | 5.2 | 0.22 | 4.69 | 4.49 | 96 | 1012.8 |
| 20260501234010 | 59 | 154 | 0.9 | 7.8 | 0.22 | 4.69 | 4.49 | 95 | 1012.6 |
| 20260501233510 | 59 | 129 | 1.7 | 7.8 | 0.21 | 4.68 | 4.48 | 96 | 1012.5 |
| 20260501233010 | 59 | 254 | 0.9 | 7.0 | 0.21 | 4.68 | 4.48 | 96 | 1012.7 |
| 20260501232510 | 59 | 114 | 0.9 | 7.0 | 0.20 | 4.67 | 4.47 | 96 | 1012.1 |
| 20260501232010 | 59 | 84 | 3.5 | 7.0 | 0.17 | 4.64 | 4.44 | 95 | 1012.2 |
| 20260501231511 | 59 | 55 | 2.6 | 2.6 | 0.12 | 4.59 | 4.39 | 95 | 1013.1 |
| 20260501230510 | 60 | 284 | 1.7 | 6.1 | 0.06 | 4.53 | 4.33 | 95 | 1012.7 |
| 20260501230010 | 59 | 94 | 0.9 | 6.1 | 0.00 | 4.47 | 4.27 | 95 | 1012.6 |
| 20260501225510 | 59 | 343 | 1.7 | 9.6 | 0.00 | 4.47 | 4.27 | 95 | 1012.7 |
| 20260501225010 | 60 | 13 | 0.0 | 9.6 | 0.00 | 4.47 | 4.27 | 95 | 1011.5 |
| 20260501224511 | 60 | 94 | 9.6 | 13.9 | 0.00 | 4.47 | 4.27 | 95 | 1010.9 |
| 20260501224010 | 60 | 146 | 3.5 | 13.9 | 0.01 | 4.47 | 4.27 | 96 | 1011.1 |
| 20260501223511 | 60 | 13 | 1.7 | 9.6 | 0.02 | 4.47 | 4.27 | 96 | 1011.4 |
| 20260501222510 | 60 | 84 | 1.7 | 10.4 | 0.02 | 4.47 | 4.27 | 96 | 1011.3 |
| 20260501222010 | 60 | 357 | 2.6 | 8.7 | 0.02 | 4.47 | 4.27 | 96 | 1011.5 |
| 20260501221510 | 60 | 84 | 0.9 | 8.7 | 0.02 | 4.47 | 4.27 | 96 | 1011.8 |
| 20260501221010 | 60 | 333 | 0.9 | 8.7 | 0.03 | 4.47 | 4.27 | 96 | 1012.1 |
| 20260501220511 | 60 | 291 | 2.6 | 7.0 | 0.03 | 4.47 | 4.27 | 96 | 1012.3 |
| 20260501215510 | 61 | 350 | 0.9 | 7.8 | 0.04 | 4.47 | 4.27 | 96 | 1012.7 |
| 20260501215010 | 61 | 196 | 2.6 | 7.8 | 0.06 | 4.47 | 4.27 | 96 | 1012.8 |
| 20260501214510 | 61 | 312 | 2.6 | 7.8 | 0.07 | 4.47 | 4.27 | 96 | 1012.9 |
| 20260501214010 | 61 | 355 | 2.6 | 8.7 | 0.07 | 4.46 | 4.26 | 96 | 1012.5 |
| 20260501213010 | 61 | 292 | 1.7 | 5.2 | 0.08 | 4.45 | 4.25 | 96 | 1012.3 |
| 20260501212510 | 61 | 302 | 2.6 | 4.3 | 0.11 | 4.45 | 4.25 | 96 | 1012.5 |
| 20260501212010 | 61 | 101 | 0.9 | 6.1 | 0.13 | 4.45 | 4.25 | 96 | 1012.1 |
| 20260501211510 | 61 | 136 | 2.6 | 8.7 | 0.14 | 4.45 | 4.25 | 96 | 1011.1 |
| 20260501210510 | 61 | 118 | 3.5 | 7.8 | 0.16 | 4.44 | 4.24 | 96 | 1010.5 |
| 20260501210010 | 61 | 129 | 0.9 | 9.6 | 0.15 | 4.43 | 4.23 | 96 | 1010.8 |
| 20260501205510 | 61 | 223 | 2.6 | 9.6 | 0.15 | 4.43 | 4.23 | 96 | 1010.5 |
| 20260501204510 | 61 | 317 | 2.6 | 6.1 | 0.15 | 4.40 | 4.20 | 96 | 1012.1 |
| 20260501204010 | 61 | 138 | 0.9 | 7.8 | 0.14 | 4.39 | 4.19 | 96 | 1011.0 |
| 20260501203010 | 61 | 356 | 2.6 | 7.0 | 0.13 | 4.37 | 4.17 | 97 | 1011.0 |
| 20260501202011 | 62 | 298 | 1.7 | 8.7 | 0.11 | 4.32 | 4.12 | 96 | 1010.7 |
| 20260501201511 | 62 | 296 | 1.7 | 8.7 | 0.10 | 4.31 | 4.11 | 96 | 1010.9 |
| 20260501200011 | 62 | 337 | 4.3 | 8.7 | 0.11 | 4.28 | 4.08 | 97 | 1010.6 |
| 20260501195511 | 62 | 339 | 7.0 | 8.7 | 0.14 | 4.28 | 4.08 | 97 | 1010.2 |
| 20260501195011 | 62 | 313 | 1.7 | 6.1 | 0.16 | 4.27 | 4.07 | 97 | 1010.4 |
| 20260501193511 | 62 | 140 | 0.0 | 4.3 | 0.17 | 4.25 | 4.05 | 97 | 1010.6 |
| 20260501193011 | 62 | 318 | 2.6 | 3.5 | 0.17 | 4.24 | 4.04 | 97 | 1010.6 |
| 20260501192511 | 62 | 3 | 0.9 | 3.5 | 0.17 | 4.22 | 4.02 | 97 | 1010.5 |
| 20260501192011 | 62 | 254 | 0.0 | 7.0 | 0.19 | 4.21 | 4.01 | 97 | 1010.2 |
| 20260501191511 | 62 | 299 | 0.0 | 7.0 | 0.19 | 4.21 | 4.01 | 97 | 1010.0 |
| 20260501191011 | 62 | 3 | 0.0 | 2.6 | 0.19 | 4.21 | 4.01 | 97 | 1010.8 |
| 20260501190511 | 62 | 302 | 0.0 | 7.8 | 0.18 | 4.19 | 3.99 | 97 | 1010.5 |
| 20260501190012 | 62 | 108 | 0.9 | 7.8 | 0.17 | 4.17 | 3.97 | 97 | 1010.4 |
| 20260501185511 | 62 | 120 | 2.6 | 7.0 | 0.15 | 4.14 | 3.94 | 97 | 1010.1 |
| 20260501185011 | 62 | 119 | 1.7 | 2.6 | 0.13 | 4.11 | 3.91 | 97 | 1010.4 |
| 20260501184510 | 62 | 317 | 0.9 | 5.2 | 0.13 | 4.10 | 3.90 | 97 | 1010.9 |
| 20260501184011 | 62 | 30 | 0.0 | 7.0 | 0.13 | 4.09 | 3.89 | 97 | 1010.6 |
| 20260501183510 | 62 | 334 | 1.7 | 9.6 | 0.12 | 4.08 | 3.88 | 97 | 1010.8 |
| 20260501182511 | 62 | 120 | 2.6 | 7.8 | 0.10 | 4.05 | 3.85 | 97 | 1009.0 |
| 20260501181510 | 62 | 30 | 3.5 | 9.6 | 0.07 | 4.02 | 3.82 | 96 | 1009.3 |